Regional Weather Roundup
Issued by NWS

Home | Current Version | Previous Version | Text Only | Print | Product List | Glossary On
Versions: 1 2 3 4 5 6 7 8 9 10 11 12 13 14 15 16 17 18 19 20 21 22 23 24 25 26 27 28 29 30 31 32 33 34 35 36 37 38 39 40 41 42 43 44 45 46 47 48 49 50
000
ASUS43 KLOT 012006
RWRIL

ILLINOIS REGIONAL WEATHER ROUNDUP
NATIONAL WEATHER SERVICE CHICAGO/ROMEOVILLE IL
200 PM CST SUN FEB 01 2015

NOTE: "FAIR" INDICATES FEW OR NO CLOUDS BELOW 12,000 FEET WITH NO
SIGNIFICANT WEATHER AND/OR OBSTRUCTIONS TO VISIBILITY.

* THESE STATIONS ARE NOT UNDER NWS QUALITY CONTROL. THEY ALSO MAY NOT
  REPORT WEATHER SUCH AS PRECIPITATION OR FOG.

ILZ001-002-007-009-015-016-024-012100-
NORTHWEST ILLINOIS

CITY           SKY/WX    TMP DP  RH WIND       PRES   REMARKS
MOLINE         HVY SNOW  24  20  84 NE23G32   29.75F VSB 1/4 WCI   9
STERLING*        N/A    N/A N/A N/A MISG        N/A
SAVANNA*       LGT SNOW  23  19  85 NE18G25   29.81F VSB 1   WCI   9
$$

ILZ003-004-008-010-011-017-018-012100-
NORTH CENTRAL ILLINOIS

CITY           SKY/WX    TMP DP  RH WIND       PRES   REMARKS
ROCKFORD       HVY SNOW  23  19  85 NE26G35   29.83F VSB 1/4 WCI   6
FREEPORT*      LGT SNOW  21  19  89 NE22      29.85S VSB 3/4 WCI   5
ROCHELLE*      SNOW      24  22  92 NE23G30   29.76F VSB 1/2 WCI   8
DE KALB*       LGT SNOW  23  20  89 NE26G38   29.76F WCI   6
PERU*          HVY SNOW  30  30 100 NE18      29.70F VSB 1/4 WCI  18
$$

ILZ005-006-012>014-019>023-012100-
NORTHEAST ILLINOIS

CITY           SKY/WX    TMP DP  RH WIND       PRES   REMARKS
CHICAGO-OHARE  SNOW      24  22  91 NE23G31   29.77S VSB 1/2 WCI   9
CHICAGO-MIDWAY SNOW      28  26  92 NE21G26   29.75R VSB 1/2 WCI  15
AURORA         HVY SNOW  27  23  85 NE31G37   29.73F VSB 1/4 WCI  10
LANSING*       SNOW      30  29  96 NE7       29.70F VSB 1/4 WCI  24
JOLIET*        SNOW      29  27  94 NE12      29.70F VSB 1/2 WCI  19
WAUKEGAN       SNOW      22  20  92 NE21G32   29.84R VSB 1/4 WCI   6
DUPAGE AIRPORT SNOW      26  22  84 NE24G32   29.76S VSB 1/4 WCI  11
KANKAKEE*      SNOW      33  32  98 NE9       29.65F VSB 1/2 WCI  25
WHEELING       SNOW      24  22  91 NE18G28   29.83R VSB 1/4 WCI  10
MORRIS*        SNOW      29  29  99 NE8       29.68F VSB 1/4 WCI  21
ROMEOVILLE*    SNOW      28  28  96 NE14      29.71F VSB 1/2 WCI  17
NORTHERLY ISL    N/A     27  26  96 NE25        N/A  WCI  12
$$

LMZ740>746-012100-
SOUTHERN LAKE MICHIGAN

STATION/POSITION SKY/WX   TEMP    WIND        PRES    VSBY  WAVE
                          AIR SEA DIR/SP/G                  HT/PER
                          (F)     (DEG/KT/KT) (MB)    (MI)  (FT/S)
WAUKEGAN HARBOR            24      40/ 35/ 40   N/A
HARRISON CRIB              26      50/ 32/ 38   N/A
BURNHAM HARBOR             27      40/ 22/ 28   N/A
CALUMET HARBOR             27      40/ 21/ 26   N/A
MICHIGAN CITY              26      40/ 17/ 20   N/A
$$

ILZ025>027-034>036-040-047-049-050-058-095>099-012100-
WEST-CENTRAL ILLINOIS

CITY           SKY/WX    TMP DP  RH WIND       PRES   REMARKS
QUINCY         LGT SNOW  33  31  92 N10       29.65S FOG     WCI  25
GALESBURG*     SNOW      26  25  94 N28G38    29.69S VSB 1/2 WCI  10
MACOMB*        LGT SNOW  33  32  96 N16       29.68S WCI  22
JACKSONVILLE*  CLOUDY    35  34  94 W6        29.62F FOG     WCI  30
PITTSFIELD*    CLOUDY    35  33  94 W6        29.65R WCI  30
$$

ILZ028>032-037-038-041>044-048-051>054-059>061-012100-
CENTRAL ILLINOIS

CITY           SKY/WX    TMP DP  RH WIND       PRES   REMARKS
PONTIAC        LGT SNOW  33  33  99 NE13      29.65F WCI  24
BLOOMINGTON    SNOW      33  33 100 NE7       29.62F VSB 1/2 WCI  27
DECATUR        CLOUDY    35  34  96 SW6       29.61F FOG     WCI  30
PEORIA         CLOUDY    34  31  88 NE9       29.64F FOG     WCI  27
LACON*         LGT SNOW  30  28  92 NE13G20   29.67F VSB 3/4 WCI  20
LINCOLN*       RAIN      35  34  96 N3        29.62F
SPRINGFIELD    LGT SNOW  34  32  92 W5        29.62F FOG     WCI  30
TAYLORVILLE    DRIZZLE   34  34 100 W7        29.62S WCI  28
$$

ILZ033-039-045-046-055>057-062-063-012100-
EAST-CENTRAL ILLINOIS

CITY           SKY/WX    TMP DP  RH WIND       PRES   REMARKS
CHAMPAIGN      LGT SNOW  34  33  96 CALM      29.60F VSB 3/4
DANVILLE*      RAIN      33  33  99 SE3       29.59F
RANTOUL*       MIX PCPN  35  34  97 CALM      29.61F VSB 3/4
MATTOON        CLOUDY    35  33  92 S6        29.59F FOG     WCI  30
PARIS*         LGT RAIN  35  35 100 SE5       29.61F WCI  31
$$

ILZ079-100>102-012100-
SOUTHWEST ILLINOIS

CITY           SKY/WX    TMP DP  RH WIND       PRES   REMARKS
BELLEVILLE     CLOUDY    42  42  99 W9G17     29.63R
CAHOKIA*       CLOUDY    43  39  86 W8        29.64S
SPARTA*        CLOUDY    44  42  92 SW7       29.63F
$$

ILZ064>066-069>071-074>076-080>082-084>086-088>090-092>094-012100-
SOUTH-CENTRAL ILLINOIS

CITY           SKY/WX    TMP DP  RH WIND       PRES   REMARKS
CARBONDALE     CLOUDY    47  44  90 SW13      29.63F
CAIRO*         RAIN     N/A N/A N/A SW9       29.64F
EFFINGHAM*     DRIZZLE   38  36  91 S5        29.62F WCI  35
MARION         LGT RAIN  46  45  93 SW12      29.64F FOG
MT. VERNON     CLOUDY    45  39  81 SW10      29.62F
CENTRALIA*     CLOUDY    42  40  92 W10       29.61F
SALEM*         LGT RAIN  43  41  93 SW8       29.61F
METROPOLIS*    LGT RAIN  50  50 100 SW8       29.63F
$$

ILZ067-068-072-073-078-083-087-091-012100-
SOUTHEAST ILLINOIS

CITY           SKY/WX    TMP DP  RH WIND       PRES   REMARKS
LAWRENCEVILLE  LGT RAIN  43  43 100 S10       29.61F FOG
FLORA*         DRIZZLE   41  41 100 SW5       29.61F
FAIRFIELD*     DRIZZLE   43  43  99 S5        29.60F
HARRISBURG*    DRIZZLE   46  46 100 W6        29.64F
ROBINSON*      RAIN      40  40  98 S6        29.62F
CARMI*         DRIZZLE   47  46  99 S7        29.62F
$$

ABBREVIATIONS USED IN REMARKS
   TC - TEMPERATURE IN CELSIUS
  WCI - WIND CHILL INDEX
   HX - HEAT INDEX
  VSB - VISIBILITY
$$




USA.gov is the U.S. government's official web portal to all federal, state and local government web resources and services.